Home   Weather   42°05'N, 91°42'W   Past weeks
Flag for USA

Past Weather in 42°05'N, 91°42'W, USA — Yesterday and Last 2 Weeks

Now
46 °F

Mostly cloudy.


Feels Like: 38 °F
Forecast: 51 / 45 °F
Wind: 20 mph from East

Location: Cedar Rapids Municipal Airport

Current Time: May 21, 2019 at 9:56:48 am

Latest Report: May 21, 2019 at 9:11 am


Visibility: 10 mi

Pressure: 29.99 "Hg

Humidity: 93%

Dew Point: 44 °F

Location of 42°05'N, 91°42'WLocation

Past Weather in 42°05'N, 91°42'W — Graph

°F

42°05'N, 91°42'W Temperature Yesterday

Maximum temperature yesterday: 57 °F (at 2:52 pm)
Minimum temperature yesterday: 40 °F (at 5:52 am)
Average temperature yesterday: 49 °F

High & Low Weather Summary for the Past Weeks

 TemperatureHumidityPressure
High90 °F (May 16, 3:52 pm)100% (May 8, 12:20 pm)30.20 "Hg (May 8, 12:20 pm)
Low35 °F (May 10, 3:52 am)37% (May 13, 5:52 pm)29.49 "Hg (May 19, 3:52 am)
Average55 °F83%29.89 "Hg
* Reported May 6 7:52 am — May 21 7:55 am, 42°05'N, 91°42'W. Weather by CustomWeather, © 2019

Note: Actual official high and low records may vary slightly from our data, if they occured in-between our weather recording intervals... More about our weather records

Advertising

42°05'N, 91°42'W Weather History for the Previous 24 Hours

Scroll right to see more
 ConditionsComfort  
Time TempWeatherWind HumidityBarometerVisibility
7:55 am
Tue, May 21
45 °FFog.16 mph97%30.01 "Hg4 mi
6:52 am45 °FFog.20 mph93%30.02 "Hg4 mi
5:52 am46 °FLight rain. Mostly cloudy.22 mph93%30.01 "Hg7 mi
4:52 am47 °FLight rain. Overcast.17 mph93%30.01 "Hg7 mi
3:52 am49 °FMostly cloudy.13 mph86%30.02 "Hg10 mi
2:52 am49 °FMostly cloudy.16 mph86%30.01 "Hg10 mi
1:52 am49 °FOvercast.13 mph86%30.04 "Hg10 mi
12:52 am49 °FMostly cloudy.12 mph90%30.04 "Hg10 mi
11:52 pm
Mon, May 20
50 °FOvercast.10 mph83%30.05 "Hg10 mi
10:52 pm50 °FOvercast.9 mph83%30.08 "Hg10 mi
9:52 pm51 °FMostly cloudy.10 mph77%30.11 "Hg10 mi
8:52 pm53 °FOvercast.10 mph72%30.12 "Hg10 mi
7:52 pm53 °FPassing clouds.7 mph72%30.10 "Hg10 mi
6:52 pm54 °FSunny.10 mph64%30.08 "Hg10 mi
5:52 pm55 °FSunny.10 mph64%30.10 "Hg10 mi
4:52 pm56 °FPartly sunny.6 mph60%30.14 "Hg10 mi
3:52 pm55 °FOvercast.7 mph62%30.13 "Hg10 mi
2:52 pm57 °FScattered clouds.8 mph60%30.12 "Hg10 mi
1:52 pm56 °FPartly sunny.8 mph60%30.12 "Hg10 mi
12:52 pm55 °FScattered clouds.9 mph62%30.13 "Hg10 mi
12:24 pm53 °FPartly sunny.8 mph61%30.15 "Hg10 mi
11:52 am51 °FOvercast.10 mph66%30.15 "Hg10 mi
10:52 am48 °FOvercast.13 mph74%30.15 "Hg10 mi
9:52 am45 °FOvercast.13 mph80%30.14 "Hg10 mi
Weather by CustomWeather, © 2019

See weather overview